Starlink 3893

operational
NORAD ID: 52579 Int'l Des: 2022-051 Owner: SPXS Country: US Constellation: starlink
LEOCIRCULAR

Über Starlink 3893

Beschreibung wird geladen...

Live-Position

3D-Globus wird geladen...

Nächste Überflüge

Höhenverlauf

Altitude vs Time

uPlot chart will show altitude changes over time

Zweizeiliger Elementsatz

1 52579U 22051AV 25352.64466153 -.00000478 00000-0 -11979-4 0 9992
2 52579 53.2176 137.9455 0001237 93.3140 266.7994 15.08834927199145
Epoch: 18. Dez. 2025 • Age: 38 hours

Aktueller Status

Höhe 544.0 km
Geschwindigkeit 7.59 km/s
Subsatellitenpunkt -14.45°S, 52.48°W
Startdatum 13. Mai 2022
Alter 3.6 years
Typ internet

Technische Details

Klassifizierung Payload
Masse 297.00 kg
Trockenmasse 275.00 kg
Gesamtmasse 297.00 kg
Länge 0.20 m
Durchmesser 2.80 m
Spannweite 9.00 m
Form Box + pan
Hersteller SPXS
Bus-Typ Starlink
Phasenstatus In Orbit
Besitzer/Staat SPXS/US

Große Konstellationen

Loading constellations...